FW6883 Weather Reports


Display with metric or nautical units.
time (UTC)temp
F
wind
direction
speed
MPH
gust
MPH
rain 1hr
in
rain 24hr
in
rain mn
in
humidity
%
barometer
mb
20260905011548 63 100 2.0 6.0 0.00 0.00 0.00 41 1005.1
20260905010054 63 99 4.0 7.0 0.00 0.00 0.00 42 1005.1
20260905004546 64 90 3.0 9.0 0.00 0.00 0.00 41 1005.2
20260905003043 65 105 3.0 7.0 0.00 0.00 0.00 38 1005.1
20260905001541 65 108 2.0 6.0 0.00 0.00 0.00 41 1005.1
20260905000039 65 120 3.0 8.0 0.00 0.00 0.00 41 1005.2
20260904234541 64 75 4.0 10.0 0.00 0.00 0.00 38 1005.1
20260904233035 64 92 4.0 10.0 0.00 0.00 0.00 40 1005.4
20260904231532 65 90 5.0 11.0 0.00 0.00 0.00 35 1005.4
20260904230042 66 104 3.0 7.0 0.00 0.00 0.00 35 1005.2
20260904224533 66 101 3.0 10.0 0.00 0.00 0.00 35 1005.5
20260904223029 66 82 3.0 9.0 0.00 0.00 0.00 36 1005.5
20260904221525 66 109 4.0 12.0 0.00 0.00 0.00 33 1005.6
20260904220023 69 72 3.0 6.0 0.00 0.00 0.00 33 1005.8
20260904214521 69 63 4.0 8.0 0.00 0.00 0.00 30 1005.9
20260904213018 69 77 4.0 8.0 0.00 0.00 0.00 32 1006.0
20260904211516 70 14 3.0 7.0 0.00 0.00 0.00 27 1006.2
20260904210015 67 13 3.0 12.0 0.00 0.00 0.00 29 1006.2
20260904204510 68 321 6.0 12.0 0.00 0.00 0.00 31 1006.1
20260904203010 67 347 6.0 11.0 0.00 0.00 0.00 31 1005.9
20260904201505 68 355 5.0 11.0 0.00 0.00 0.00 30 1006.0
20260904200011 69 65 2.0 11.0 0.00 0.00 0.00 25 1006.2
20260904194603 68 44 5.0 9.0 0.00 0.00 0.00 28 1006.3
20260904193057 68 356 5.0 11.0 0.00 0.00 0.00 22 1006.3
20260904191554 68 324 6.0 10.0 0.00 0.00 0.00 21 1006.2
20260904190052 69 302 4.0 9.0 0.00 0.00 0.00 23 1006.4
20260904184553 69 65 3.0 6.0 0.00 0.00 0.00 23 1006.4
20260904183045 67 81 3.0 8.0 0.00 0.00 0.00 25 1006.5
20260904181542 66 82 0.0 7.0 0.00 0.00 0.00 22 1006.4
20260904180040 65 98 1.0 7.0 0.00 0.00 0.00 20 1006.4
20260904174536 66 81 1.0 5.0 0.00 0.00 0.00 24 1006.3
20260904173033 65 91 1.0 6.0 0.00 0.00 0.00 23 1006.3
20260904171557 65 94 1.0 9.0 0.00 0.00 0.00 20 1006.1
20260904170027 65 108 2.0 5.0 0.00 0.00 0.00 20 1006.0
20260904164523 64 82 1.0 6.0 0.00 0.00 0.00 25 1005.8
20260904163038 64 90 1.0 5.0 0.00 0.00 0.00 24 1005.5
20260904161515 63 79 3.0 5.0 0.00 0.00 0.00 27 1005.5
20260904160013 63 93 0.0 4.0 0.00 0.00 0.00 29 1005.3
20260904154509 62 103 0.0 2.0 0.00 0.00 0.00 30 1005.1
20260904153007 61 81 1.0 3.0 0.00 0.00 0.00 31 1005.2
20260904151601 61 105 0.0 2.0 0.00 0.00 0.00 31 1005.4
20260904150056 60 105 1.0 4.0 0.00 0.00 0.00 33 1005.4
20260904144603 59 119 1.0 4.0 0.00 0.00 0.00 34 1005.1
20260904143111 58 117 1.0 3.0 0.00 0.00 0.00 36 1005.0
20260904141548 57 96 1.0 4.0 0.00 0.00 0.00 37 1004.8
20260904140045 57 115 2.0 6.0 0.00 0.00 0.00 37 1004.7
20260904134541 57 109 1.0 4.0 0.00 0.00 0.00 38 1004.3
20260904133041 56 117 1.0 3.0 0.00 0.00 0.00 39 1004.3
20260904131538 56 120 2.0 4.0 0.00 0.00 0.00 40 1004.3
20260904130040 56 112 1.0 3.0 0.00 0.00 0.00 40 1004.2
20260904124535 56 79 0.0 2.0 0.00 0.00 0.00 39 1004.1
20260904123037 56 79 0.0 1.0 0.00 0.00 0.00 39 1004.0
20260904121530 56 157 0.0 0.0 0.00 0.00 0.00 40 1003.9
20260904120041 55 123 0.0 0.0 0.00 0.00 0.00 43 1004.0
20260904114526 54 123 0.0 0.0 0.00 0.00 0.00 43 1004.0
20260904113023 56 123 0.0 1.0 0.00 0.00 0.00 40 1003.9
20260904111522 56 123 0.0 2.0 0.00 0.00 0.00 41 1004.0
20260904110019 56 133 0.0 2.0 0.00 0.00 0.00 41 1003.8
20260904104516 56 90 0.0 3.0 0.00 0.00 0.00 41 1003.8
20260904103014 55 60 0.0 0.0 0.00 0.00 0.00 42 1003.7
20260904101518 56 60 0.0 2.0 0.00 0.00 0.00 41 1003.6
20260904100011 56 61 0.0 3.0 0.00 0.00 0.00 41 1003.5
20260904094509 56 58 0.0 3.0 0.00 0.00 0.00 40 1003.5
20260904093007 56 27 1.0 3.0 0.00 0.00 0.00 39 1003.6
20260904091505 56 34 0.0 2.0 0.00 0.00 0.00 40 1003.5
20260904090001 56 335 0.0 1.0 0.00 0.00 0.00 41 1003.7
20260904084601 56 302 1.0 3.0 0.00 0.00 0.00 41 1003.9
20260904083055 55 262 2.0 3.0 0.00 0.00 0.00 44 1003.9
20260904081552 55 271 1.0 3.0 0.00 0.00 0.00 45 1004.2
20260904080113 55 271 2.0 4.0 0.00 0.00 0.00 45 1004.3
20260904074547 56 315 0.0 3.0 0.00 0.00 0.00 44 1004.2
20260904073042 56 267 2.0 3.0 0.00 0.00 0.00 41 1004.5
20260904071536 57 8 1.0 2.0 0.00 0.00 0.00 37 1004.3
20260904070043 59 111 0.0 0.0 0.00 0.00 0.00 29 1004.1
20260904064529 60 111 0.0 1.0 0.00 0.00 0.00 27 1004.2
20260904063029 60 113 0.0 4.0 0.00 0.00 0.00 27 1004.1
20260904061523 60 103 0.0 1.0 0.00 0.00 0.00 27 1004.2
20260904060018 60 103 0.0 2.0 0.00 0.00 0.00 28 1004.3
20260904054611 60 103 0.0 1.0 0.00 0.00 0.00 31 1004.4
20260904053004 61 103 1.0 3.0 0.00 0.00 0.00 27 1004.4
20260904051600 61 91 1.0 4.0 0.00 0.00 0.00 27 1004.5
20260904050056 61 126 0.0 5.0 0.00 0.00 0.00 27 1004.6
20260904044548 60 122 1.0 4.0 0.00 0.00 0.00 28 1004.6
20260904043052 60 127 1.0 4.0 0.00 0.00 0.00 29 1004.6
20260904041536 58 169 1.0 2.0 0.00 0.00 0.00 34 1004.6
20260904040030 58 111 1.0 3.0 0.00 0.00 0.00 38 1004.5
20260904034526 58 110 0.0 2.0 0.00 0.00 0.00 38 1004.3
20260904033028 59 112 1.0 2.0 0.00 0.00 0.00 38 1004.1
20260904031513 59 105 1.0 4.0 0.00 0.00 0.00 36 1004.0
20260904030009 58 105 0.0 3.0 0.00 0.00 0.00 38 1003.9
20260904024507 59 108 1.0 3.0 0.00 0.00 0.00 40 1003.9
20260904023001 59 109 1.0 3.0 0.00 0.00 0.00 40 1003.6
20260904021610 58 160 1.0 2.0 0.00 0.00 0.00 56 1003.5
20260904020056 58 108 2.0 7.0 0.00 0.00 0.00 57 1003.3
20260904014553 59 106 3.0 9.0 0.00 0.00 0.00 55 1003.5
20260904013045 61 86 3.0 9.0 0.00 0.00 0.00 52 1003.8